Starlink 33614

operational
NORAD ID: 63372 Int'l Des: 2025-063 Owner: SPXS Country: US Constellation: starlink
LEOCIRCULAR

About Starlink 33614

Description loading...

Live Position

Loading 3D Globe...

Upcoming Passes

Altitude History

Altitude vs Time

uPlot chart will show altitude changes over time

Two-Line Element Set

1 63372U 25063K 25350.46697227 .00019055 00000-0 65362-3 0 9990
2 63372 53.1585 76.4737 0001219 115.6957 244.4170 15.30209761 42058
Epoch: Dec 16, 2025 • Age: 22 hours

Current Status

Altitude 483.7 km
Velocity 7.62 km/s
Sub-Earth Point -26.74°S, 171.11°W
Launch Date Mar 26, 2025
Age 0.7 years
Type internet

Technical Details

Classification Payload
Mass 575.00 kg
Dry Mass 530.00 kg
Total Mass 575.00 kg
Length 0.30 m
Diameter 4.10 m
Span 29.00 m
Shape Box + pan
Manufacturer SPXS
Bus Type Starlink V2MO
Phase Status In Orbit
Owner/State SPXS/US

Large Constellations

Loading constellations...